sat.trackr.live / text

‹ back to catalog

STARLINK-35848

NORAD 66349 · 2025-254B

PAYLOAD ACTIVE UNKNOWN

§ Identity

Operator
Country
US
Launch date
2025-11-06
Launch site
AFWTR
Launch vehicle
Mass (kg)
RCS (m²)

Purposes: comms

External: N2YO · Heavens-Above · Gunter

§ Orbital elements

Epoch: 2026-09-20T15:55:15.987936Z

Period
94.01 min
Inclination
53.1601°
Eccentricity
0.0002681
Mean motion
15.31733222 rev/d
Perigee alt
468.8 km
Apogee alt
472.5 km
Semi-major
6,848.8 km
B*
5.9083e-4
RAAN
45.6414°
Arg perigee
96.7013°
Mean anomaly
263.4294°
Rev number
4,884

§ Raw data

STARLINK-358481 66349U 25254B   26263.66337949  .00018033  00000+0  59083-3 0  99942 66349  53.1601  45.6414 0002681  96.7013 263.4294 15.31733222 48846

JSON: /api/v1/satellites/66349 · /tle

For live sub-satellite position, see the globe view (requires WebGL).

§ Visibility from observer

Set your observer location to see the next 7 days of passes ≥ 10°. The values pass through the URL so the page stays shareable.

No JS? Fill the form by hand. The geolocation button needs JavaScript.